Terug naar catalogus

USA 411

ActiefMilitairVLEO
NORAD 61032·PAYLOAD·🇺🇸 United States

Gelanceerd Sep 6, 2024 vanaf Vandenberg Space Force Base

Loading…

Volgende Passages (komende 24 uur)

TLE

VerouderdSource: Mike McCants

Epoch: Sep 5, 2026, 20:58 UTC

1 61032U 24160M   26248.87381420 0.00000000  00000-0  00000-0 0    03
2 61032  70.0205 154.2192 0003000 210.7039 149.2961 14.96713564    05

Volg USA 411 in realtime met AllMySat

Download on the App Store